PILOTS ONLINE: 520    ATC ONLINE: 132

KSMO

Santa Monica Municipal Airport

Location

City Santa Monica
Country  United States
Latitude 34° 0' 56" N
Longitude 118° 27' 3" W
Elevation 177 ft
Type Small Airport

Map

Weather

METAR
2014/09/30 18:51
KSMO 301851Z 22006KT 10SM CLR 24/14 A2986 RMK AO2 SLP108 T02440144 $
TAF
No TAF available

Runways

03/21 4973 ft / 150 ft

Outbound flights

Callsign Flying to Pilot ATD/STD ETA Aircraft

Inbound flights

Callsign Flying from Pilot ATD ETA Aircraft